Regional Weather Roundup
Issued by NWS

Home | Current Version | Previous Version | Text Only | Print | Product List | Glossary Off
Versions: 1 2 3 4 5 6 7 8 9 10 11 12 13 14 15 16 17 18 19 20 21 22 23 24 25 26 27 28 29 30 31 32 33 34 35 36 37 38 39 40 41 42 43 44 45 46 47 48 49 50

000
ASUS43 KBIS 312102
RWRND

NORTH DAKOTA REGIONAL WEATHER ROUNDUP
NATIONAL WEATHER SERVICE BISMARCK ND
400 PM CDT WED AUG 31 2016

NOTE: "FAIR" INDICATES FEW OR NO CLOUDS BELOW 12,000 FEET WITH NO
SIGNIFICANT WEATHER AND/OR OBSTRUCTIONS TO VISIBILITY.


NDZ001>003-009>011-017-312200-
NORTHWEST NORTH DAKOTA

CITY           SKY/WX    TMP DP  RH WIND       PRES   REMARKS
WILLISTON      SUNNY     94  57  28 SE17      30.01F HX  92
MINOT          MOSUNNY   83  61  47 E15G22    30.14S
MINOT AFB      PTSUNNY   73  59  60 E28       30.13S
$$

NDZ018>021-031>035-040>046-312200-
SOUTHWEST NORTH DAKOTA

CITY           SKY/WX    TMP DP  RH WIND       PRES   REMARKS
BISMARCK       SUNNY     83  62  49 SE17      30.14F
DICKINSON      SUNNY     89  49  25 S22G36    30.08F
GARRISON         N/A     84  62  47 S17       30.10F
HETTINGER ARPT SUNNY     89  55  31 S17G28    30.13F
$$

NDZ004>008-012>016-024-026-027-054-312200-
NORTHEAST NORTH DAKOTA

CITY           SKY/WX    TMP DP  RH WIND       PRES   REMARKS
GRAND FORKS    MOSUNNY   77  54  44 NE8       30.21F
GRND FRKS AFB  SUNNY     75  54  48 VRB7      30.22F
DEVILS LAKE    CLOUDY    75  53  46 SE10      30.22F
$$

NDZ022-023-025-028>030-036>039-047>053-312200-
SOUTHEAST NORTH DAKOTA

CITY           SKY/WX    TMP DP  RH WIND       PRES   REMARKS
FARGO          SUNNY     79  55  43 N9        30.20F
JAMESTOWN      MOSUNNY   79  55  43 S9        30.19F
$$





USA.gov is the U.S. government's official web portal to all federal, state and local government web resources and services.